Location: Cedar Brake
(32.2526°N, 97.8459°W)
Time: 20:02:13
(UTC+00:00)

Milstar 3 - Pass Details

Date: 22 April 2026
Orbit: 1097 x 5148 km, 28.2° (Epoch: 21 May)

Event Time Altitude Azimuth Distance (km) Brightness Sun altitude
Rises 03:53:20 0° 240° (WSW) 4,188 6.0 -31.9°
Reaches altitude 10° 03:55:43 10° 236° (SW) 3,409 5.4 -32.3°
Enters shadow 04:02:47 55° 183° (S) 2,094 3.8 -33.3°
Exits shadow 04:20:08 - 85° (E) 6,246 6.3 -35.8°
Sets 04:25:47 0° 82° (E) 7,776 6.9 -36.5°
